This is the latest recevied weather packets stored in our database for station/object WO1G-13. If no packets are shown the sender has not sent any weather packets the latest 10 day(s).
| Time | Temp. | Humidity | Pressure | Rain* | Wind** | Luminosity | Snow |
|---|---|---|---|---|---|---|---|
| 1777142835 | 26.11° C | 77% | 1010.3 hPa | 0 mm | - | - | - |
| 1777142535 | 26.11° C | 76% | 1010.5 hPa | 0 mm | - | - | - |
| 1777142235 | 26.11° C | 76% | 1010.5 hPa | 0 mm | - | - | - |
| 1777141935 | 26.11° C | 76% | 1010.5 hPa | 0 mm | - | - | - |
| 1777141635 | 26.11° C | 76% | 1010.8 hPa | 0 mm | - | - | - |
| 1777141305 | 25.56° C | 77% | 1010.6 hPa | 0 mm | - | - | - |
| 1777141005 | 25.56° C | 76% | 1011 hPa | 0 mm | - | - | - |
| 1777140705 | 26.11° C | 75% | 1010.8 hPa | 0 mm | - | - | - |
| 1777140375 | 26.11° C | 75% | 1010.9 hPa | 0 mm | - | - | - |
| 1777140075 | 26.11° C | 75% | 1010.8 hPa | 0 mm | - | - | - |
| 1777139775 | 26.11° C | 75% | 1010.8 hPa | 0 mm | - | - | - |
| 1777139475 | 26.11° C | 74% | 1011 hPa | 0 mm | - | - | - |
| 1777139175 | 26.67° C | 74% | 1011.1 hPa | 0 mm | - | - | - |
| 1777138875 | 26.67° C | 73% | 1011.2 hPa | 0 mm | - | - | - |
| 1777138575 | 27.22° C | 71% | 1011.3 hPa | 0 mm | - | - | - |
| 1777138245 | 27.22° C | 72% | 1010.5 hPa | 0 mm | - | - | - |
| 1777137915 | 27.22° C | 72% | 1010.8 hPa | 0 mm | - | - | - |
| 1777137585 | 27.78° C | 71% | 1010.8 hPa | 0 mm | - | - | - |
| 1777137255 | 27.78° C | 71% | 1010.8 hPa | 0 mm | - | - | - |
| 1777136955 | 27.78° C | 71% | 1010.7 hPa | 0 mm | - | - | - |
| 1777136655 | 27.22° C | 72% | 1010.8 hPa | 0 mm | - | - | - |
| 1777136325 | 27.22° C | 72% | 1010.7 hPa | 0 mm | - | - | - |
| 1777136025 | 26.67° C | 73% | 1010.7 hPa | 0 mm | - | - | - |
| 1777135695 | 26.67° C | 73% | 1011.5 hPa | 0 mm | - | - | - |
| 1777135395 | 27.22° C | 72% | 1011.4 hPa | 0 mm | - | - | - |
* Rain latest hour (hover to see other rain measurements)
** Current wind speed in m/s (hover to see current wind gust speed)